Вернуться в каталог

GEESAT 6-11

АктивенСвязьLEO
NORAD 65723·PAYLOAD·🇨🇳 China

Запущен Sep 24, 2025 с Yellow Sea Launch Area

Loading…

Ближайшие Пролёты (ближайшие 24 часа)

TLE

СвежийSource: Space-Track

Эпоха: Sep 14, 2026, 06:07 UTC

1 65723U 25214M   26257.25499008  .00001185  00000-0  16946-3 0  9990
2 65723  49.9827 255.1426 0009898 208.6779 151.3616 14.83584629 52732

Отслеживайте GEESAT 6-11 в реальном времени с AllMySat

Download on the App Store